Flag for Finland Weather past 2 weeks in Vantaa, Finland

Now
48 °F

Clear.


Feels Like: 43 °F
Forecast: 37 / 46 °F
Wind: 14 mph from Northwest

Location: Helsinki-Vantaa

Current Time: Apr 19, 2015 at 10:51:19 PM

Latest Report: Apr 19, 2015 at 10:20 PM


Visibility: 10 mi

Pressure: 29.74 "Hg

Humidity: 50%

Dew point: 30 °F

Location of VantaaLocation

Historic Weather in Vantaa — Graph

°F

Vantaa temperature yesterday

Maximum temperature yesterday: 41 °F (at 10:20 AM)
Minimum temperature yesterday: 34 °F (at 7:20 AM)
Average temperature yesterday: 39 °F

Past Weeks' High & Low Weather Summary

 TemperatureHumidityPressure
High57 °F (Apr 11, 4:20 PM)100% (Apr 5, 9:20 AM)30.30 "Hg (Apr 5, 9:20 AM)
Low27 °F (Apr 6, 4:50 AM)30% (Apr 9, 2:50 PM)29.21 "Hg (Apr 16, 3:50 AM)
Average41 °F67%29.80 "Hg
* Reported Apr 4 9:20 PM — Apr 19 9:50 PM, Vantaa, Weather by CustomWeather, © 2015

Note: Actual official high and low records may vary slightly from our data, if they occured in-between our weather recording intervals... More about our weather records

Advertising

Vantaa weather history for previous 24 hours

 ConditionsComfort  
Time TempWeatherWind HumidityBarometerVisibility
9:50 PM
Sun, Apr 19
46 °FScattered showers. Passing clouds.13 mph57%29.74 "HgN/A
9:20 PM46 °FScattered showers. Partly sunny.16 mph57%29.74 "HgN/A
8:50 PM48 °FPartly sunny.15 mph58%29.74 "HgN/A
8:20 PM46 °FScattered showers. Partly sunny.12 mph57%29.74 "HgN/A
7:50 PM48 °FSunny.10 mph54%29.71 "Hg10 mi
7:20 PM48 °FPartly sunny.15 mph54%29.74 "HgN/A
6:50 PM48 °FScattered showers. Broken clouds.14 mph54%29.74 "HgN/A
6:20 PM48 °FPartly sunny.18 mph54%29.74 "HgN/A
5:50 PM50 °FPartly sunny.15 mph50%29.74 "HgN/A
5:20 PM50 °FPartly sunny.16 mph50%29.74 "HgN/A
4:50 PM50 °FBroken clouds.16 mph50%29.74 "HgN/A
4:20 PM48 °FBroken clouds.14 mph54%29.77 "HgN/A
3:50 PM48 °FPartly sunny.13 mph50%29.77 "HgN/A
3:20 PM48 °FPartly sunny.10 mph54%29.77 "HgN/A
2:50 PM48 °FPartly sunny.12 mph54%29.77 "HgN/A
2:20 PM46 °FSunny.12 mph57%29.80 "Hg10 mi
1:50 PM45 °FSunny.12 mph61%29.80 "Hg10 mi
1:20 PM45 °FSunny.12 mph61%29.83 "Hg10 mi
12:50 PM45 °FSunny.8 mph61%29.83 "Hg10 mi
12:20 PM43 °FSunny.8 mph61%29.86 "Hg10 mi
11:50 AM43 °FSunny.9 mph61%29.86 "Hg10 mi
11:20 AM43 °FSunny.8 mph61%29.86 "Hg10 mi
10:50 AM41 °FSunny.7 mph66%29.89 "Hg10 mi
10:20 AM41 °FSunny.7 mph66%29.89 "Hg10 mi
9:50 AM39 °FSunny.8 mph70%29.89 "Hg10 mi
9:20 AM39 °FSunny.7 mph70%29.92 "Hg10 mi
8:50 AM37 °FSunny.8 mph75%29.92 "Hg10 mi
8:20 AM37 °FSunny.8 mph75%29.92 "Hg10 mi
7:50 AM36 °FBroken clouds.10 mph81%29.92 "HgN/A
7:20 AM36 °FSunny.12 mph81%29.95 "Hg10 mi
6:20 AM34 °FClear.7 mph81%29.95 "Hg10 mi
5:50 AM34 °FClear.7 mph81%29.95 "Hg10 mi
5:20 AM34 °FClear.8 mph81%29.95 "Hg10 mi
4:50 AM36 °FClear.8 mph75%29.95 "Hg10 mi
4:20 AM34 °FPassing clouds.6 mph75%29.95 "HgN/A
3:50 AM34 °FPassing clouds.6 mph75%29.98 "HgN/A
3:20 AM34 °FPassing clouds.7 mph75%29.98 "HgN/A
2:50 AM34 °FPassing clouds.7 mph70%29.98 "HgN/A
2:20 AM34 °FPassing clouds.7 mph70%29.98 "HgN/A
1:50 AM36 °FPassing clouds.9 mph65%30.01 "HgN/A
1:20 AM34 °FPassing clouds.7 mph70%30.01 "HgN/A
12:50 AM34 °FClear.6 mph70%29.98 "Hg10 mi
12:20 AM34 °FClear.8 mph70%29.98 "Hg10 mi
11:50 PM
Sat, Apr 18
36 °FPassing clouds.7 mph60%29.98 "HgN/A
11:20 PM36 °FPassing clouds.7 mph65%29.98 "HgN/A
10:50 PM37 °FPassing clouds.6 mph60%29.98 "HgN/A
10:20 PM39 °FPassing clouds.9 mph52%29.98 "HgN/A
Weather by CustomWeather, © 2015

See weather overviewHow to use our weather pages